Regional Weather Roundup
Issued by NWS Charleston, SC

Current Version | Previous Version | Text Only | Print | Product List | Glossary Off
Versions: 1 2 3 4 5 6 7 8 9 10 11 12 13 14 15 16 17 18 19 20 21 22 23 24 25 26 27 28 29 30 31 32 33 34 35 36 37 38 39 40 41 42 43 44 45 46 47 48 49 50

000
ASUS42 KCHS 061911
RWRCHS

REGIONAL WEATHER ROUNDUP
NATIONAL WEATHER SERVICE CHARLESTON SC
200 PM EST FRI MAR 06 2015

NOTE: "FAIR" INDICATES FEW OR NO CLOUDS BELOW 12,000 FEET WITH NO
SIGNIFICANT WEATHER AND/OR OBSTRUCTIONS TO VISIBILITY.

NOT ALL STATIONS ARE QUALITY CONTROLLED BY THE NATIONAL
WEATHER SERVICE. USE DATA WITH CAUTION...ESPECIALLY
DEWPOINT OBSERVATIONS.

SCZ027-030-031-034>040-042>050-062000-
...SOUTHEAST SOUTH CAROLINA...

CITY           SKY/WX    TMP DP  RH WIND       PRES   REMARKS
N CHARLESTON   CLOUDY    45  31  58 N10       30.38F
WATERFRONT PRK   N/A     43 N/A N/A N12G17      N/A
MOUNT PLEASANT MOCLDY    45  32  61 N7        30.38F
PINOPOLIS        N/A     43  30  61 N10       30.32F
MONCKS CORNER  CLOUDY    45  30  57 N10       30.38F
SUMMERVILLE    CLOUDY    45  32  61 N9        30.39F
BEAUFORT MCAS  CLOUDY    45  34  65 NE8       30.38F
BEAUFORT ARPT  CLOUDY    43  36  75 NE13      30.38F
HILTON HEAD IS CLOUDY    45  36  70 N13       30.39F
WALTERBORO     CLOUDY    45  34  65 NE5       30.39F
ALLENDALE      CLOUDY    45  34  65 NE6       30.38F

...SOUTHERN MIDLANDS AND PEE DEE...

CITY           SKY/WX    TMP DP  RH WIND       PRES   REMARKS
GEORGETOWN     NOT AVBL
KINGSTREE      NOT AVBL
ORANGEBURG     CLOUDY    46  29  51 N7        30.39F
BARNWELL       MOCLDY    48  32  53 NE7       30.40F
AIKEN          FAIR      45  27  49 NE5       30.41F
MANNING        CLOUDY    45  14  29 N10       30.39F
COLUMBIA       MOSUNNY   45  27  49 VRB5      30.40F
SUMTER         SUNNY     45  27  49 NE10      30.38F
FLORENCE       SUNNY     44  20  38 VRB7      30.41F
MYRTLE BEACH   CLOUDY    43  23  45 N9        30.41F
N MYRTLE BEACH CLOUDY    42  21  43 N9        30.38F

$$

GAZ063-065-086>088-099>101-113>116-118-119-134>141-150-062000-
...SOUTHEAST GEORGIA...

CITY           SKY/WX    TMP DP  RH WIND       PRES   REMARKS
SAVANNAH ARPT  CLOUDY    44  34  67 NE8       30.38F
HUNTER AAF     CLOUDY    44  36  73 N6        30.35F
FORT STEWART   CLOUDY    45  36  69 N9        30.35F
STATESBORO     CLOUDY    44  36  74 NE6       30.39F
SYLVANIA       CLOUDY    45  37  73 N8        30.40F
CLAXTON        CLOUDY    45  37  76 N6        30.39F

...CSRA...CENTRAL AND FAR SOUTHEAST GEORGIA...

CITY           SKY/WX    TMP DP  RH WIND       PRES   REMARKS
THOMSON        SUNNY     50  33  53 E5        30.44F
AUGUSTA-BUSH   CLOUDY    49  30  48 E3        30.39F
AUGUSTA-DANIEL SUNNY     50  30  46 VRB5      30.39F
SWAINSBORO     CLOUDY    48  30  49 NE8       30.39F
VIDALIA        CLOUDY    45  37  76 NE5       30.38F
EASTMAN        CLOUDY    47  38  71 N8        30.42F
HAZLEHURST     NOT AVBL
ALMA           CLOUDY    45  38  76 N8        30.36F
WAYCROSS       CLOUDY    49  44  83 NE8       30.36F
JESUP          NOT AVBL
BAXLEY         CLOUDY    46  39  76 NE9       30.37F
BRUNSWICK      CLOUDY    45  39  81 NE13G18   30.36F
SAINT SIMONS   CLOUDY    45  39  79 NE12G22   30.34F

$$

SCZ027-028-034-036>038-045-046-048>050-GAZ119-141-062000-
...LAKE AND SUPPLEMENTAL COASTAL OBSERVATIONS...

STATION/POSITION TIME  TEMP    WIND        PRES    WAVE   SWELL
                       AIR SEA DIR/SP/G            HT/PER HT/PER/DIR
                 (UTC) (F)     (DEG/KT/KT) (MB)    (FT/S) (FT/S/D)
UPR LAKE MARION  NOT AVBL
WINYAH BAY       1745   39      60/ 10     1029.0
LAKE MURRAY      1800   41     340/  2/  4 1030.1F
ACE BASIN NERRS  NOT AVBL
FORT PULASKI     1800   43 53   20/  9/ 14 1029.6F
SAPELO ISLAND    NOT AVBL

$$

ANZ835-935-AMZ111-154-330-350-352-354-370-450-454-472-062000-
...C-MAN AND BUOY OBSERVATIONS...

STATION/POSITION TIME  TEMP    WIND        PRES    WAVE   SWELL
                       AIR SEA DIR/SP/G            HT/PER HT/PER/DIR
                 (UTC) (F)     (DEG/KT/KT) (MB)    (FT/S) (FT/S/D)
BUOY 41004       1850   44 67   30/ 23/ 29 1026.5F  10/ 7   5/16
BUOY 41008       1850   45 55   30/ 23/ 29 1026.5F   7/ 7   3/ 70/ 8
FOLLY BEACH CMAN 1800   41      20/ 13/ 16 1029.8F
CAPERS NEARSHORE 1800   39      50/ 14/ 16   N/A
FRIPP NEARSHORE  1800   42      30/ 16/ 19 1028.1F


STATION/POSITION TIME  TEMP    WIND        PRES    WAVE   SWELL
                       AIR SEA DIR/SP/G            HT/PER HT/PER/DIR
                 (UTC) (F)     (DEG/KT/KT) (MB)    (FT/S) (FT/S/D)
5E ST. MARYS GA  1821      53                N/A     7/ 6   2/110/11
FRYING PAN BUOY  1850   39 59   30/ 23/ 27 1028.2F   9/ 8   3/ 90/ 9
BUOY 41025       NOT AVBL
CAPE LOOKOUT NC  1800           10/ 16/ 21 1029.5F
BUOY 41002       1850   64 72   40/ 19/ 23 1021.6F   9/10   7/360/10
BUOY 41010       1820   73 75   20/  6/  6 1021.6F
ST AUGUSTINE FL  1800   52     350/ 23/ 25 1025.8F


$$


USA.gov is the U.S. government's official web portal to all federal, state and local government web resources and services.